Total_Precipitation_Accumulation
0.68 0.57 0.46 0.46 0.46 0.51 0.60 0.73 1.16 1.49 1.99 2.46 2.67 2.78 2.62 2.66 2.55 2.24 2.05 1.94 1.81 1.74 1.69 1.60 1.50 1.38 1.27 1.21 1.18 1.16 1.23 1.25 1.23 1.22 1.21 1.13 1.10 1.15 1.14 1.15 1.09 1.08 1.04 1.01
0.63 0.52 0.54 0.64 0.63 0.68 0.68 0.79 1.06 1.47 2.08 2.36 2.58 2.70 2.64 2.64 2.44 2.29 2.19 2.10 1.99 1.91 1.81 1.66 1.46 1.38 1.32 1.26 1.23 1.21 1.20 1.16 1.09 1.07 1.05 0.98 0.96 0.95 0.97 1.02 1.08 1.10 1.08 1.03
0.91 0.61 0.84 1.33 1.02 0.91 1.03 1.01 1.29 1.77 2.03 1.93 2.03 2.19 2.33 2.41 2.37 2.26 2.18 2.17 2.14 2.06 1.96 1.79 1.61 1.51 1.40 1.34 1.26 1.24 1.23 1.10 1.01 1.01 0.99 0.94 0.89 0.94 0.94 0.97 1.05 1.11 1.12 1.11
1.01 1.17 1.92 1.84 1.16 1.01 1.14 1.28 1.24 1.42 1.52 1.55 1.62 1.82 1.99 2.10 2.25 2.30 2.25 2.19 2.13 2.05 1.92 1.84 1.70 1.52 1.34 1.20 1.15 1.23 1.25 1.13 1.00 0.98 0.98 0.96 0.97 1.02 1.05 1.02 1.04 1.13 1.16 1.11
1.29 1.71 2.05 1.86 1.28 1.13 1.48 1.84 1.36 1.27 1.30 1.29 1.34 1.59 2.00 2.11 2.23 2.38 2.24 2.18 2.12 1.98 1.86 1.79 1.62 1.42 1.26 1.22 1.15 1.15 1.14 1.06 0.94 0.88 0.91 0.90 0.91 0.96 1.01 1.04 1.06 1.11 1.10 1.11
1.54 2.09 2.41 2.19 1.14 0.82 1.38 2.37 1.52 1.24 1.32 1.44 1.58 2.01 2.09 1.91 1.92 2.11 2.15 2.23 2.16 1.92 1.75 1.65 1.41 1.21 1.14 1.12 1.06 1.02 0.94 0.88 0.82 0.85 0.85 0.84 0.86 0.91 0.99 1.03 1.03 1.03 1.06 1.10
1.66 2.17 2.22 1.40 0.84 0.96 2.14 2.49 1.70 1.49 1.53 1.66 1.88 2.01 1.75 1.57 1.61 1.77 1.94 2.00 1.90 1.76 1.63 1.42 1.22 1.15 1.17 1.07 0.93 0.80 0.74 0.77 0.80 0.85 0.88 0.83 0.89 0.94 0.98 0.99 1.05 1.06 1.03 1.02
1.87 2.31 2.36 1.15 0.93 1.53 1.89 1.45 1.31 1.28 1.32 1.45 1.42 1.31 1.29 1.39 1.48 1.60 1.75 1.75 1.65 1.59 1.48 1.33 1.20 1.20 1.25 1.11 0.89 0.77 0.77 0.80 0.83 0.85 0.73 0.70 0.89 0.93 0.90 0.98 1.04 1.01 0.98 0.94
1.96 2.22 1.85 1.19 1.20 1.28 1.23 1.29 1.22 1.21 1.16 1.22 1.22 1.19 1.23 1.29 1.38 1.48 1.55 1.54 1.40 1.30 1.32 1.33 1.28 1.25 1.28 1.15 0.95 0.88 0.95 0.94 0.88 0.86 0.86 0.88 0.91 0.88 0.87 0.90 0.86 0.75 0.73 0.76
1.50 1.47 1.28 1.12 1.07 1.03 1.02 1.08 1.00 0.99 1.01 1.12 1.26 1.28 1.34 1.26 1.24 1.32 1.37 1.34 1.31 1.26 1.28 1.29 1.23 1.12 1.17 1.08 0.98 1.01 1.03 0.96 0.90 0.92 0.99 0.98 0.90 0.76 0.73 0.72 0.69 0.67 0.67 0.68
1.77 1.52 1.36 1.22 1.02 0.90 0.86 0.82 0.81 0.85 0.91 1.03 1.18 1.21 1.21 1.21 1.16 1.08 1.04 1.07 1.15 1.25 1.20 1.12 1.08 0.97 0.94 0.96 0.96 1.09 1.08 0.97 0.88 0.81 0.82 0.86 0.73 0.59 0.57 0.55 0.55 0.62 0.68 0.68
1.89 1.57 1.68 1.41 1.05 0.87 0.87 0.95 0.93 0.87 0.81 0.84 0.95 1.02 1.05 1.10 1.01 0.90 0.85 0.89 0.98 1.03 1.00 0.99 0.97 0.93 0.90 0.86 0.85 1.02 1.04 0.94 0.80 0.67 0.63 0.59 0.54 0.54 0.51 0.46 0.47 0.51 0.59 0.56
1.41 1.13 1.23 1.17 1.09 1.12 1.05 0.98 0.93 0.86 0.78 0.87 0.88 0.93 0.94 0.91 0.90 0.82 0.76 0.78 0.81 0.84 0.85 0.84 0.84 0.81 0.78 0.78 0.81 0.96 0.99 0.88 0.70 0.57 0.53 0.50 0.51 0.59 0.63 0.53 0.47 0.48 0.51 0.50
1.06 1.04 1.11 1.16 1.23 1.13 0.99 0.83 0.76 0.76 0.73 0.79 0.85 0.88 0.82 0.79 0.80 0.76 0.79 0.76 0.69 0.64 0.65 0.66 0.66 0.70 0.71 0.71 0.78 0.86 0.85 0.73 0.63 0.56 0.50 0.47 0.45 0.51 0.65 0.72 0.70 0.66 0.60 0.53
1.17 1.11 1.06 0.97 0.88 0.89 0.87 0.82 0.83 0.82 0.78 0.74 0.76 0.82 0.74 0.71 0.74 0.69 0.67 0.60 0.55 0.53 0.55 0.54 0.54 0.63 0.66 0.67 0.72 0.73 0.73 0.65 0.58 0.52 0.48 0.45 0.44 0.48 0.58 0.64 0.73 0.79 0.72 0.64
1.10 0.91 0.76 0.71 0.70 0.70 0.68 0.71 0.81 0.79 0.76 0.75 0.75 0.78 0.68 0.65 0.67 0.64 0.55 0.50 0.55 0.58 0.55 0.53 0.53 0.57 0.59 0.60 0.65 0.64 0.63 0.62 0.55 0.45 0.42 0.42 0.44 0.50 0.60 0.67 0.75 0.84 0.81 0.72
0.78 0.73 0.70 0.71 0.68 0.65 0.61 0.60 0.66 0.67 0.67 0.68 0.65 0.64 0.64 0.63 0.65 0.64 0.55 0.47 0.53 0.57 0.53 0.49 0.48 0.45 0.48 0.47 0.48 0.51 0.50 0.55 0.56 0.47 0.42 0.45 0.51 0.60 0.70 0.77 0.78 0.85 0.82 0.75
0.54 0.54 0.57 0.58 0.59 0.62 0.57 0.53 0.56 0.61 0.62 0.59 0.56 0.58 0.60 0.66 0.69 0.58 0.48 0.44 0.45 0.50 0.53 0.52 0.45 0.42 0.40 0.42 0.43 0.42 0.45 0.49 0.48 0.51 0.52 0.54 0.61 0.69 0.77 0.80 0.78 0.79 0.73 0.67
0.42 0.44 0.47 0.48 0.51 0.57 0.55 0.49 0.51 0.55 0.56 0.54 0.53 0.60 0.66 0.63 0.57 0.50 0.47 0.47 0.50 0.55 0.55 0.50 0.44 0.43 0.40 0.40 0.41 0.39 0.41 0.46 0.45 0.47 0.52 0.55 0.61 0.68 0.73 0.73 0.72 0.71 0.67 0.65
0.37 0.38 0.41 0.44 0.46 0.50 0.49 0.50 0.51 0.52 0.52 0.53 0.55 0.58 0.62 0.60 0.52 0.49 0.48 0.51 0.53 0.51 0.46 0.42 0.40 0.39 0.36 0.36 0.40 0.35 0.38 0.45 0.44 0.42 0.47 0.49 0.55 0.61 0.61 0.62 0.59 0.61 0.63 0.61
0.38 0.36 0.38 0.38 0.38 0.39 0.43 0.47 0.48 0.49 0.48 0.49 0.51 0.52 0.51 0.51 0.47 0.47 0.51 0.53 0.52 0.45 0.41 0.40 0.37 0.35 0.34 0.34 0.38 0.35 0.36 0.39 0.39 0.39 0.40 0.42 0.47 0.49 0.47 0.49 0.50 0.51 0.56 0.58
0.45 0.43 0.41 0.38 0.38 0.40 0.40 0.45 0.50 0.50 0.48 0.47 0.47 0.43 0.43 0.46 0.45 0.46 0.49 0.50 0.47 0.44 0.39 0.37 0.36 0.35 0.36 0.36 0.33 0.34 0.34 0.36 0.37 0.39 0.41 0.42 0.44 0.43 0.42 0.43 0.45 0.46 0.47 0.48
0.49 0.42 0.41 0.42 0.44 0.45 0.42 0.44 0.46 0.45 0.48 0.47 0.47 0.48 0.50 0.50 0.50 0.54 0.57 0.51 0.45 0.45 0.40 0.39 0.41 0.39 0.37 0.36 0.35 0.37 0.35 0.35 0.35 0.36 0.39 0.41 0.39 0.38 0.37 0.39 0.44 0.43 0.42 0.42
0.45 0.39 0.40 0.40 0.41 0.49 0.52 0.49 0.50 0.52 0.55 0.54 0.50 0.49 0.49 0.50 0.51 0.50 0.51 0.56 0.56 0.51 0.42 0.45 0.46 0.42 0.37 0.31 0.33 0.40 0.36 0.34 0.35 0.36 0.36 0.33 0.34 0.37 0.39 0.40 0.42 0.41 0.42 0.43
0.49 0.43 0.41 0.44 0.50 0.54 0.56 0.54 0.52 0.52 0.55 0.57 0.50 0.48 0.46 0.48 0.52 0.47 0.42 0.43 0.48 0.49 0.46 0.44 0.43 0.42 0.36 0.32 0.34 0.41 0.39 0.39 0.41 0.40 0.39 0.40 0.39 0.38 0.41 0.42 0.41 0.42 0.45 0.51
0.62 0.60 0.58 0.54 0.54 0.54 0.52 0.50 0.56 0.59 0.60 0.58 0.54 0.49 0.50 0.49 0.47 0.44 0.43 0.42 0.43 0.48 0.45 0.42 0.41 0.43 0.39 0.39 0.40 0.46 0.44 0.43 0.45 0.44 0.42 0.42 0.42 0.41 0.42 0.45 0.47 0.49 0.53 0.57
0.71 0.69 0.69 0.61 0.53 0.51 0.51 0.52 0.56 0.61 0.59 0.63 0.68 0.59 0.54 0.53 0.50 0.48 0.49 0.48 0.49 0.49 0.48 0.43 0.39 0.41 0.44 0.46 0.46 0.48 0.45 0.40 0.40 0.43 0.44 0.44 0.42 0.41 0.43 0.44 0.46 0.50 0.53 0.53